STARLINK-32149, 60292

Orbit data source: Space-Track

STARLINK-32149, 60292 is a payload satellite owned by SpaceX/Seattle (US) in LEO that was launched on Sun, 28 Jul 2024 UTC via an FALCON 9 launch vehicle from the Air Force Eastern Test Range (AFETR). Payload-class satellites include a variety of spacecraft equipped with specific instruments for various scientific and technological missions. These include communications satellites like Starlink; space stations such as the ISS; scientific satellites like the Hubble; Earth observation satellites from companies like Planet Labs, Umbra, and HawkEye 360; GPS; miniature CubeSats for education and research; and military/defense satellites.

Loading next visibility...
Identifier
60292, 2024-132Q
Orbit
LEO
Last TLE update
20 hours ago
Origin
Manufacturer
SpaceX/Seattle
Mission
Operational spacecraft
Bus & Motor
STARLINK V2M, Unknown motor
Mass
730 kg wet, ~700 kg dry
Launch date (UTC)
2024-07-28 (11 months ago)
Launch vehicle
FALCON 9
Launch site
Air Force Eastern Test Range (AFETR)
Object type
Payload
Rocket body
Debris
Shape & HBR
Unknown
Radar Cross Section
Large (>1 m²)

Expand to show TLE details & history

TLE from 20 hours ago
0 STARLINK-32149
1 60292U 24132Q   25181.61098932  .00000199  00000-0  18863-4 0  9995
2 60292  53.1597 143.4815 0001418  86.4828 273.6335 15.30187003 52966
Epoch: 2025-06-30T14:39Z
TLE epoch observation values (Epoch: 2025-06-30T14:39:49.477Z)
Latitude
-0°
Longitude
4.60703°
Altitude
476.092 km
Speed
7.629 km/s
True Right ascension
09h 33m 55s
True Declination
0° 00' 00"
Sunlit
Object was in daylight at epoch
Visualization orbit readout
Latitude
-39.55556°
Longitude
-141.24989°
Altitude
489.017 km
Speed
7.62 km/s
Apparent Right ascension
04h 19m 49s
Apparent Declination
-74° 41' 59"
Sunlit
Object is in full shadow
Visualization observer readout
Local Sidereal Time
22:07:36
Azimuth
160.172° S
Elevation
-39.028°
Doppler factor
1
Orbital elements
Apogee altitude
476.482 km
Perigee altitude
474.539 km
Semi-major axis
6,853.647 km
Eccentricity
0.00014
Inclination
53.1597°
RAAN
143.4815°
Arg. of periapsis
86.4828°
True anomaly
Unknown
Mean anomaly
273.6335°
Eccentric anomaly
Unknown
Mean motion
3.82526 °/min
Orbital period
94.11 mins
BSTAR
0.000018863
Loading maneuver chart data...
Loading SW <> Apogee altitude chart data...
Loading historical data...
Loading historical data...
Loading historical data...
Loading historical data...
Loading historical data...
Loading historical data...
Loading historical data...

STARLINK-32149 Visibility forecast

Observer location: undefined°, undefined°

Span
Click to sort rows by Start time (UTC) header in descending order
Start Az.
Max El. time (UTC)
Max El. Az.
Max El.
End time (UTC)
End Az.
6 mins2025-07-01 23:45:09.008Z218.292° SW2025-07-01 23:48:09.008Z154.73° SSE42.226°2025-07-01 23:51:09.008Z56.89° ENE
4 mins2025-07-02 01:25:09.008Z304.608° NW2025-07-02 01:26:09.008Z326.428° NNW19.781°2025-07-02 01:29:09.008Z24.48° NE
5 mins2025-07-02 06:21:09.008Z324.505° NNW2025-07-02 06:23:09.008Z22.393° NNE39.22°2025-07-02 06:26:09.008Z112.682° SE
|